Home   Weather   Debrecen   Past weeks
Flag for Hungary

Past Weather in Debrecen, Hungary — Yesterday and Last 2 Weeks

Now
55 °F

Cool.


Feels Like: 51 °F
Forecast: 62 / 54 °F
Wind: 16 mph from South

Location: Debrecen Airport

Current Time: May 21, 2019 at 4:45:07 am

Latest Report: May 21, 2019 at 3:45 am


Visibility: N/A

Pressure: 29.74 "Hg

Humidity: 94%

Dew Point: 54 °F

Location of DebrecenLocation

Past Weather in Debrecen — Graph

°F

Debrecen Temperature Yesterday

Maximum temperature yesterday: 70 °F (at 3:15 pm)
Minimum temperature yesterday: 55 °F (at 5:15 am)
Average temperature yesterday: 62 °F

High & Low Weather Summary for the Past Weeks

 TemperatureHumidityPressure
High81 °F (May 19, 5:15 pm)100% (May 6, 7:15 am)30.15 "Hg (May 6, 7:15 am)
Low41 °F (May 6, 7:45 pm)35% (May 11, 5:15 pm)29.59 "Hg (May 19, 11:45 pm)
Average56 °F77%29.89 "Hg
* Reported May 6 3:15 am — May 21 3:15 am, Debrecen. Weather by CustomWeather, © 2019

Note: Actual official high and low records may vary slightly from our data, if they occured in-between our weather recording intervals... More about our weather records

Advertising

Debrecen Weather History for the Previous 24 Hours

Scroll right to see more
 ConditionsComfort  
Time TempWeatherWind HumidityBarometerVisibility
3:15 am
Tue, May 21
55 °FLight rain. Overcast.14 mph100%29.74 "HgN/A
2:45 am55 °FLight rain. Overcast.13 mph100%29.74 "Hg6 mi
2:15 am55 °FLight rain. Overcast.12 mph100%29.74 "Hg5 mi
1:45 am55 °FLight rain. Overcast.17 mph100%29.74 "Hg4 mi
1:15 am57 °FLight rain. Overcast.12 mph94%29.74 "Hg4 mi
1:09 am57 °FLight rain. Overcast.12 mph94%29.74 "Hg4 mi
12:45 am57 °FRain. Overcast.15 mph94%29.74 "Hg4 mi
12:15 am57 °FRain. Passing clouds.7 mph94%29.74 "Hg4 mi
11:55 pm
Mon, May 20
57 °FRain. Passing clouds.5 mph94%29.74 "Hg4 mi
11:15 pm57 °FLight rain. Passing clouds.6 mph88%29.74 "Hg4 mi
10:45 pm61 °FLight rain. Passing clouds.5 mph77%29.74 "Hg6 mi
10:15 pm61 °FPassing clouds.No wind77%29.74 "Hg6 mi
9:47 pm59 °FCool.13 mph82%29.74 "Hg6 mi
9:15 pm59 °FCool.3 mph77%29.71 "Hg6 mi
8:45 pm61 °FClear.2 mph72%29.71 "Hg6 mi
8:15 pm61 °FClear.5 mph72%29.71 "Hg10 mi
7:45 pm63 °FSunny.3 mph68%29.71 "Hg10 mi
7:15 pm64 °FSunny.2 mph64%29.71 "Hg10 mi
6:45 pm64 °FMild.3 mph64%29.71 "HgN/A
6:15 pm63 °FLight rain. Partly sunny.9 mph77%29.71 "HgN/A
5:45 pm68 °FMild.9 mph56%29.74 "HgN/A
5:15 pm70 °FPassing clouds.7 mph60%29.71 "HgN/A
4:45 pm70 °FScattered clouds.7 mph60%29.71 "HgN/A
4:15 pm70 °FScattered clouds.7 mph57%29.74 "HgN/A
3:45 pm70 °FPassing clouds.6 mph60%29.74 "HgN/A
3:15 pm70 °FPassing clouds.6 mph60%29.74 "HgN/A
2:45 pm68 °FPartly sunny.5 mph64%29.77 "HgN/A
2:15 pm68 °FPartly sunny.6 mph64%29.77 "HgN/A
1:45 pm68 °FClear.5 mph64%29.77 "Hg6 mi
1:15 pm66 °FScattered clouds.6 mph68%29.77 "HgN/A
12:45 pm66 °FPartly sunny.8 mph73%29.77 "HgN/A
12:15 pm64 °FPartly sunny.7 mph73%29.77 "Hg6 mi
11:45 am64 °FBroken clouds.5 mph83%29.77 "HgN/A
11:15 am64 °FPartly sunny.6 mph83%29.77 "HgN/A
10:45 am64 °FPartly sunny.6 mph78%29.77 "HgN/A
10:18 am63 °FPartly sunny.6 mph83%29.77 "Hg6 mi
9:45 am64 °FPartly sunny.5 mph83%29.77 "Hg6 mi
9:44 am64 °FMild.6 mph78%29.77 "Hg6 mi
8:45 am61 °FPartly sunny.6 mph88%29.74 "HgN/A
7:45 am59 °FClear.3 mph94%29.74 "Hg6 mi
7:15 am57 °FClear.5 mph100%29.74 "Hg6 mi
6:45 am57 °FPassing clouds.No wind100%29.71 "Hg5 mi
6:22 am55 °FScattered clouds.2 mph100%29.71 "Hg5 mi
5:45 am55 °FScattered clouds.No wind100%29.71 "Hg4 mi
5:15 am55 °FClear.5 mph100%29.68 "Hg5 mi
4:45 am57 °FPassing clouds.7 mph94%29.71 "HgN/A
4:15 am57 °FCool.9 mph94%29.71 "HgN/A
Weather by CustomWeather, © 2019

See weather overview